Location: Augirein
(42.9320°N, 0.9181°E)
Time: 14:15:27
(UTC+00:00)

SL-4 R/B - Pass Details

Date: 20 June 2021
Orbit: 428 x 662 km, 51.6° (Epoch: 31 July)

Event Time Altitude Azimuth Distance (km) Brightness Sun altitude
Rises 01:19:13 0° 291° (WNW) 2,610 5.5 -21.0°
Reaches altitude 10° 01:21:54 10° 308° (NW) 1,678 4.7 -20.9°
Maximum altitude 01:24:47 21° 358° (N) 1,124 4.4 -20.7°
Drops below altitude 10° 01:27:33 10° 49° (NE) 1,594 5.3 -20.5°
Sets 01:30:01 0° 67° (ENE) 2,437 6.0 -20.3°
